Location: ???????
(55.4362°N, 38.1183°E)
Time: 18:13:43
(UTC+00:00)

Cosmos 2278 Rocket - Pass Details

Date: 30 October 2021
Orbit: 841 x 845 km, 71.0° (Epoch: 28 November)

Event Time Altitude Azimuth Distance (km) Brightness Sun altitude
Rises 14:33:24 0° 322° (NW) 3,418 5.7 -6.2°
Reaches altitude 10° 14:36:08 10° 333° (NNW) 2,480 4.8 -6.6°
Maximum altitude 14:41:13 32° 36° (NE) 1,419 3.0 -7.3°
Drops below altitude 10° 14:46:16 10° 99° (E) 2,469 4.0 -8.0°
Enters shadow 14:47:07 - 103° (ESE) 2,753 4.3 -8.1°
